Temperature
21 21 21 20 20 19 19 18 18 17 17 16 16 16 16 16 16 16 16 16 16 16 16 16 16 17 17 17 17 17 17 17 17 17 17 17 17 17 17 17 17 17 18
21 21 21 20 20 19 19 18 18 17 16 16 16 17 16 16 16 16 16 16 16 16 16 16 16 16 17 17 17 17 17 17 17 17 17 17 17 17 17 17 17 17 17
21 21 20 20 19 19 19 18 18 17 17 17 17 17 17 16 16 16 16 16 16 16 16 16 16 16 16 16 16 16 16 16 16 16 17 17 17 17 17 17 17 17 17
20 20 19 19 19 19 19 18 18 17 17 17 17 17 16 16 16 16 16 16 16 16 16 16 16 16 16 16 16 16 16 16 16 16 16 16 17 17 17 17 17 17 17
19 18 18 18 18 18 18 18 18 17 17 16 16 16 16 16 16 16 16 16 16 16 16 16 16 16 16 16 16 16 16 16 16 16 16 16 16 17 17 17 17 17 17
18 17 17 17 17 17 17 17 17 17 16 16 15 15 15 15 15 15 15 15 15 15 15 15 15 16 16 16 16 16 16 16 16 16 16 16 16 16 17 17 17 17 17
17 16 16 16 16 16 16 16 16 16 16 15 15 15 15 15 14 14 15 15 15 15 15 15 15 15 15 15 16 16 16 15 16 16 16 16 16 16 16 16 16 17 17
16 15 15 15 15 15 15 15 15 15 15 15 15 15 15 14 14 14 14 14 14 15 15 15 15 15 15 15 15 16 15 15 15 15 15 16 16 16 16 16 16 16 17
15 15 15 15 15 15 15 15 15 15 14 14 14 14 14 14 14 14 14 14 14 14 14 14 15 15 15 15 15 15 15 15 15 15 15 15 16 16 16 16 16 16 16
14 14 14 14 14 14 14 14 14 14 14 14 14 14 14 14 14 14 14 14 14 14 14 14 14 14 14 14 15 15 15 15 15 15 15 15 15 15 16 16 16 16 16
13 13 13 13 13 13 13 13 13 14 13 13 13 14 14 14 14 14 14 14 14 14 14 14 14 14 14 14 14 14 15 15 15 15 15 15 15 15 15 16 16 16 16
11 12 12 12 12 13 13 13 13 13 13 13 13 13 13 13 13 13 13 14 14 14 13 13 14 14 14 14 14 14 14 14 15 15 15 15 15 15 15 15 16 16 16
9 10 10 11 11 12 12 12 12 12 12 12 12 13 13 13 13 13 13 13 13 13 13 13 13 13 13 13 13 13 14 14 14 15 15 15 15 15 15 15 15 15 15
9 9 9 10 10 10 11 11 12 12 12 12 12 12 12 12 13 13 13 13 13 13 13 13 13 13 13 13 13 13 13 13 14 14 15 15 15 15 14 15 15 15 15
7 8 8 9 9 10 10 10 10 11 11 11 12 12 12 12 12 12 13 12 12 12 12 13 13 13 13 12 12 13 13 13 13 14 14 15 14 14 14 14 15 15 15
6 7 7 8 8 9 9 9 10 10 10 11 11 11 11 12 12 12 12 13 12 12 12 12 12 12 12 12 12 12 12 12 12 13 13 14 14 14 14 14 15 15 15
6 6 7 7 7 8 8 8 8 9 9 10 10 11 11 11 11 11 12 12 12 13 12 12 12 12 12 12 12 12 12 12 12 12 12 13 14 14 14 14 14 14 15
5 6 6 6 7 7 7 7 7 7 7 8 9 9 10 10 10 10 11 11 11 12 12 12 12 11 11 11 11 12 12 12 12 12 12 12 13 13 13 14 14 14 14
4 5 5 5 5 6 6 6 6 6 6 6 6 7 7 8 8 8 9 9 10 11 11 11 11 11 11 11 11 11 11 11 12 12 12 12 12 13 13 13 14 14 14
4 4 4 4 4 4 4 5 5 5 4 4 4 4 5 5 6 6 7 7 8 9 10 10 11 11 11 11 11 11 11 11 11 11 12 12 12 12 13 13 13 13 13
3 3 2 2 2 2 2 2 2 2 2 2 2 2 3 3 4 4 5 6 6 7 8 9 9 10 10 10 10 10 11 11 11 11 12 12 12 12 12 13 13 13 13
1 1 1 0 -1 -1 -1 -1 -1 -0 0 1 1 2 2 2 3 3 3 4 5 5 6 7 8 9 9 9 9 9 10 10 11 11 11 12 12 12 12 13 13 13 13
0 -0 -1 -1 -2 -2 -2 -2 -2 -1 -1 0 1 1 1 1 2 2 3 3 3 4 5 6 7 8 8 9 9 9 9 10 10 11 11 12 12 12 12 12 13 13 13
-2 -2 -2 -2 -3 -3 -3 -3 -3 -3 -4 -3 -3 -1 -0 0 0 1 2 2 3 3 4 5 6 6 7 8 8 9 9 9 10 10 10 11 11 11 12 12 12 12 13
-3 -4 -4 -4 -3 -4 -3 -4 -4 -4 -5 -5 -5 -4 -4 -3 -2 -2 -1 0 1 2 3 4 4 5 6 7 8 8 8 8 9 9 9 10 10 11 11 11 11 12 12
-5 -5 -5 -5 -5 -5 -5 -5 -5 -6 -6 -6 -6 -6 -5 -5 -4 -4 -3 -2 -1 0 1 2 3 4 5 6 7 7 8 8 8 9 9 9 9 10 10 10 11 11 11
Wind_Speed
4 7 11 10 9 7 6 4 3 1 2 4 3 3 3 2 3 3 2 1 1 0 1 2 2 2 2 3 3 3 3 4 5 5 6 8 10 9 9 9 9 8 7
4 10 11 10 9 8 6 5 3 1 1 3 2 1 0 1 2 2 3 4 4 4 4 4 3 3 3 3 3 4 4 4 5 5 6 7 8 9 9 10 9 8 8
4 8 7 8 7 6 5 4 4 3 1 0 1 2 2 3 4 5 6 7 8 8 7 7 6 5 4 4 4 4 5 5 5 5 5 5 6 8 9 9 9 9 9
5 4 1 4 5 5 5 5 5 5 4 3 4 4 4 5 6 6 8 9 9 10 10 9 8 7 5 5 5 5 6 6 6 5 4 4 4 7 8 9 9 9 9
7 4 2 3 4 5 6 6 6 6 6 6 6 6 6 7 7 7 9 11 11 10 11 10 9 8 6 5 5 6 7 7 7 6 5 4 4 7 9 9 9 9 9
10 10 8 5 5 6 6 7 7 7 7 7 8 7 8 9 9 8 9 11 11 8 8 8 8 7 6 5 5 6 7 7 8 6 5 5 6 8 10 10 9 9 9
13 17 16 13 9 7 7 7 7 7 8 9 9 9 9 10 11 10 9 10 9 8 6 6 6 6 6 5 5 7 7 6 7 6 6 6 9 12 12 12 11 10 10
19 23 24 24 20 15 10 8 8 8 8 10 10 10 11 11 11 11 11 11 9 8 7 6 6 6 5 5 5 6 6 5 5 7 7 7 9 14 14 14 13 12 11
27 27 27 28 26 23 19 14 11 10 10 11 11 11 12 12 12 12 12 11 10 10 9 7 7 6 5 5 5 6 7 6 3 5 6 7 9 13 15 16 15 14 13
24 26 28 29 29 26 23 24 22 18 16 14 14 14 14 13 13 12 12 11 11 11 10 10 9 8 7 6 5 6 7 6 4 5 6 7 9 13 16 17 17 16 14
25 22 26 28 29 28 25 27 27 25 25 23 18 17 14 12 11 11 11 12 13 13 12 12 12 11 9 7 7 7 7 6 5 5 7 10 11 13 17 18 18 17 16
23 21 21 25 27 27 24 24 23 22 24 23 22 21 16 13 11 10 10 12 13 14 15 15 14 12 10 7 7 7 6 7 6 7 9 11 14 15 16 19 19 19 17
13 18 19 23 26 26 22 21 21 20 21 22 25 25 20 15 13 11 8 9 10 12 11 12 12 10 7 6 6 6 7 7 7 9 10 13 15 16 16 18 19 20 19
17 21 19 23 24 24 22 20 20 19 18 19 21 24 20 12 10 10 7 8 7 7 7 7 5 7 7 7 7 6 7 7 8 10 12 14 16 17 17 19 19 20 20
20 21 20 21 23 23 20 18 18 18 18 19 20 22 22 13 9 10 8 8 8 7 5 4 4 5 5 5 6 6 6 7 9 11 12 15 16 17 19 20 21 21 21
20 19 19 16 23 23 18 16 14 16 17 18 18 21 22 18 14 10 9 7 8 9 7 5 5 5 5 4 5 5 6 7 8 10 12 13 16 18 19 21 22 22 21
15 16 18 16 23 21 18 18 17 17 17 15 16 19 21 20 18 14 9 10 10 13 10 6 5 4 4 5 6 7 6 6 7 9 11 12 13 16 20 22 23 23 22
14 16 17 19 19 18 18 17 17 17 16 15 17 17 19 21 20 15 9 10 14 14 8 7 6 5 5 5 6 6 6 6 7 8 9 10 11 12 15 20 23 24 23
13 15 17 16 16 17 18 18 17 16 15 16 17 17 20 20 20 16 9 9 15 10 9 8 7 5 6 7 7 6 6 6 7 7 7 8 11 12 13 15 20 23 24
14 15 15 17 16 16 15 12 10 10 12 15 15 17 21 20 20 17 10 11 13 10 9 9 10 8 6 7 7 7 6 6 6 7 8 7 8 11 13 13 13 15 21
18 19 18 19 18 15 14 14 14 14 12 10 13 19 21 21 21 17 10 9 10 10 11 12 10 10 7 5 5 5 5 6 7 7 7 7 7 8 10 11 12 12 12
17 17 17 17 16 15 15 13 13 13 12 11 14 18 20 22 21 17 12 12 11 11 13 12 10 8 6 5 5 4 4 4 5 6 5 7 8 6 8 9 10 11 12
17 19 19 18 17 16 16 13 15 13 13 13 15 14 18 23 22 19 15 11 12 11 11 13 12 11 10 7 7 6 5 7 4 3 3 4 5 6 7 7 8 11 12
17 17 18 18 18 17 17 17 18 15 15 16 14 14 18 21 21 20 17 13 11 11 12 13 12 11 11 11 7 7 5 5 5 3 2 2 3 5 6 6 8 8 11
17 16 16 18 18 18 17 17 17 16 15 15 15 16 16 14 16 18 17 12 12 12 13 14 14 13 11 11 9 6 5 3 3 4 4 3 2 2 3 5 6 6 8
13 15 17 18 17 18 18 17 18 19 19 20 19 18 17 15 13 15 17 12 12 12 13 14 14 15 13 12 10 7 6 5 5 5 5 4 4 2 2 2 3 4 4
Wind_Direction
228 212 203 184 182 182 182 183 175 167 169 147 131 117 99 81 69 62 50 27 12 9 216 185 164 154 148 142 143 146 145 140 130 121 129 137 137 138 142 143 133 121 116
176 184 197 186 187 189 193 200 205 206 100 121 111 99 23 335 323 309 297 287 279 269 256 243 224 211 196 176 167 173 175 158 133 115 112 126 137 141 142 144 139 139 134
111 168 195 187 193 200 206 215 224 233 261 360 330 298 289 287 286 288 287 281 272 266 258 248 239 231 222 199 187 196 200 186 158 137 126 131 146 149 145 146 147 147 147
82 130 124 202 208 219 222 228 232 238 247 260 269 275 279 282 280 281 286 292 286 270 261 253 247 238 228 213 204 212 217 202 181 166 156 162 173 166 160 157 156 155 154
64 69 22 235 232 237 239 238 238 240 241 248 254 258 265 272 277 283 290 296 298 279 259 253 249 244 235 223 217 224 228 212 193 185 189 196 206 189 176 171 164 159 158
33 22 2 310 282 271 264 258 253 252 251 253 255 256 265 270 270 271 284 294 298 287 262 253 251 253 249 234 226 233 237 223 198 195 208 221 226 213 190 176 166 162 162
25 19 9 353 333 310 290 278 269 264 262 263 263 264 268 274 278 270 268 281 287 287 276 261 258 260 261 252 246 249 249 236 197 201 221 240 236 219 198 181 173 168 166
29 23 18 10 2 349 326 303 287 278 272 272 273 272 272 268 275 278 267 268 276 281 277 265 258 261 269 274 276 281 283 268 212 206 225 246 239 217 200 187 179 174 170
29 25 19 14 9 3 355 342 324 308 294 287 284 279 282 279 274 281 280 272 273 275 274 267 255 253 260 274 288 297 300 294 241 218 227 242 244 224 205 195 187 182 178
28 24 18 15 13 9 8 7 2 353 340 326 309 294 285 286 280 282 288 285 280 275 271 265 258 250 247 252 268 282 292 298 270 240 236 242 247 236 218 205 196 191 187
26 24 19 17 14 12 14 14 13 11 5 359 347 333 313 293 283 277 277 280 280 276 269 264 260 253 247 247 253 263 278 281 272 254 247 249 255 252 232 215 204 199 195
20 20 21 19 16 15 14 11 10 9 7 6 4 357 346 330 310 289 273 271 274 278 276 268 262 256 251 250 260 267 265 270 271 261 258 259 261 262 245 222 210 205 202
14 19 18 19 17 18 14 12 11 6 5 4 5 3 357 351 341 329 310 291 284 283 277 268 262 253 244 239 248 256 257 263 264 263 262 262 263 264 255 232 218 210 206
19 16 11 14 14 14 13 12 13 9 6 4 1 3 3 357 351 342 327 310 296 285 279 270 254 247 246 244 243 248 254 254 257 259 259 258 260 261 259 243 229 218 211
18 12 7 8 9 5 6 6 9 7 6 3 3 4 4 359 351 343 335 326 311 294 274 264 253 247 244 244 242 238 245 251 254 253 254 253 252 253 256 252 238 228 219
16 10 4 5 5 0 359 356 356 358 360 2 4 3 4 1 355 346 339 333 325 313 291 267 255 252 250 243 246 238 240 250 253 252 250 252 251 250 251 252 244 234 226
11 7 4 2 1 357 353 350 348 347 351 355 358 360 2 0 356 350 341 339 336 326 308 287 266 247 249 244 247 246 242 241 246 249 249 247 248 247 247 248 245 236 230
7 3 1 0 357 353 349 344 343 341 345 347 349 354 357 356 354 349 339 334 333 329 315 294 272 256 246 241 243 244 239 240 241 244 246 243 241 243 244 245 243 236 229
2 359 357 356 355 351 348 345 342 340 342 342 344 349 349 349 349 344 331 329 330 326 319 307 287 255 249 245 244 245 238 236 239 241 239 238 236 235 237 242 241 235 227
0 358 357 356 355 352 350 346 342 340 341 339 339 344 342 341 341 338 328 329 329 323 321 317 302 278 251 243 249 247 239 237 236 236 240 240 235 232 231 233 237 236 231
1 359 357 355 355 356 355 352 346 342 339 336 337 339 335 335 334 330 328 325 324 319 312 308 303 290 267 238 237 255 258 243 237 238 236 237 236 230 225 224 226 226 228
355 353 353 352 352 356 354 348 342 334 333 332 335 333 334 333 330 329 327 324 319 316 312 308 307 293 276 228 213 224 260 286 251 234 231 232 235 229 224 221 218 218 218
354 353 350 349 350 354 354 350 345 340 339 341 338 335 334 331 327 324 321 318 315 312 308 306 302 290 281 260 219 197 200 225 251 262 232 237 241 233 230 223 217 217 216
350 348 348 349 350 354 355 351 348 345 340 335 331 326 325 324 320 319 318 314 311 309 304 303 301 293 280 267 242 227 218 179 182 238 259 247 254 241 237 231 224 218 215
347 348 350 349 350 352 351 348 345 341 337 331 329 324 324 318 313 311 310 307 306 304 299 298 298 292 280 265 246 219 214 210 182 180 223 245 259 256 254 244 235 225 214
347 353 352 348 348 348 347 346 343 340 337 333 333 331 330 326 321 316 315 307 302 299 297 296 292 288 280 268 254 227 197 180 184 178 190 205 224 253 265 256 233 220 205
Height
1527 1526 1525 1525 1525 1526 1527 1527 1528 1528 1529 1529 1529 1530 1530 1531 1531 1532 1532 1533 1533 1533 1533 1534 1534 1534 1534 1535 1536 1536 1537 1537 1537 1537 1538 1538 1539 1539 1540 1541 1542 1543 1544
1529 1528 1528 1527 1527 1527 1528 1528 1528 1529 1529 1529 1529 1529 1529 1530 1530 1530 1531 1532 1532 1533 1533 1533 1533 1534 1534 1534 1535 1536 1536 1537 1537 1537 1538 1538 1539 1539 1540 1541 1542 1543 1544
1532 1531 1530 1530 1530 1529 1529 1529 1529 1529 1529 1529 1529 1529 1529 1529 1529 1529 1530 1530 1531 1531 1531 1532 1532 1533 1533 1533 1534 1535 1536 1536 1537 1537 1538 1538 1539 1539 1540 1541 1542 1543 1544
1535 1534 1533 1532 1532 1531 1530 1530 1530 1529 1529 1529 1528 1528 1528 1528 1528 1528 1528 1529 1529 1530 1530 1530 1531 1531 1532 1532 1533 1534 1535 1536 1536 1537 1537 1538 1539 1539 1540 1541 1542 1543 1544
1538 1537 1536 1535 1534 1533 1532 1531 1530 1529 1529 1528 1527 1527 1527 1526 1526 1526 1526 1527 1527 1528 1528 1529 1529 1530 1531 1531 1532 1533 1534 1535 1535 1536 1537 1537 1538 1539 1539 1540 1541 1542 1543
1539 1539 1538 1536 1535 1534 1533 1532 1531 1530 1528 1528 1527 1527 1526 1525 1525 1525 1525 1525 1526 1526 1527 1527 1527 1528 1529 1529 1530 1531 1532 1533 1534 1535 1536 1536 1537 1538 1539 1540 1541 1542 1543
1539 1539 1538 1537 1536 1534 1533 1532 1530 1529 1528 1527 1527 1526 1525 1524 1524 1524 1523 1523 1524 1524 1525 1525 1526 1526 1527 1528 1528 1529 1530 1531 1532 1533 1534 1535 1536 1537 1538 1539 1540 1541 1542
1538 1538 1537 1535 1534 1534 1533 1532 1531 1529 1528 1527 1526 1525 1524 1523 1522 1522 1522 1522 1522 1522 1523 1523 1523 1524 1525 1525 1526 1527 1528 1529 1530 1531 1532 1533 1534 1535 1536 1537 1538 1540 1541
1539 1538 1537 1535 1534 1533 1532 1531 1530 1529 1528 1526 1525 1524 1522 1521 1521 1520 1520 1520 1520 1520 1520 1521 1521 1521 1522 1522 1523 1524 1525 1526 1527 1528 1529 1530 1532 1534 1535 1535 1537 1538 1540
1541 1539 1538 1536 1534 1533 1531 1530 1529 1527 1526 1525 1523 1522 1520 1519 1519 1518 1517 1517 1517 1517 1517 1518 1518 1519 1519 1519 1520 1521 1522 1523 1524 1525 1526 1528 1529 1531 1532 1533 1535 1536 1538
1543 1541 1540 1538 1536 1534 1531 1530 1528 1526 1524 1523 1521 1520 1518 1517 1516 1516 1515 1514 1514 1514 1514 1515 1515 1516 1516 1516 1517 1517 1518 1519 1521 1522 1523 1525 1526 1527 1529 1531 1532 1534 1535
1546 1544 1542 1539 1537 1535 1532 1530 1528 1526 1524 1522 1519 1517 1516 1514 1514 1513 1513 1512 1512 1512 1512 1512 1512 1513 1513 1513 1513 1514 1514 1515 1516 1518 1519 1521 1522 1524 1525 1527 1529 1530 1532
1551 1547 1544 1541 1538 1535 1532 1530 1528 1525 1523 1521 1518 1516 1514 1512 1511 1510 1510 1510 1510 1509 1509 1509 1509 1509 1509 1510 1510 1510 1510 1510 1511 1513 1515 1516 1518 1520 1521 1524 1526 1527 1529
1554 1550 1547 1543 1540 1536 1533 1530 1527 1524 1522 1519 1517 1515 1513 1511 1509 1507 1506 1506 1506 1506 1506 1505 1505 1505 1505 1506 1506 1506 1506 1506 1507 1508 1510 1512 1513 1515 1517 1519 1521 1523 1525
1556 1553 1549 1546 1542 1538 1535 1531 1528 1524 1521 1518 1516 1513 1510 1508 1507 1505 1504 1503 1502 1501 1501 1501 1501 1501 1501 1501 1501 1501 1502 1502 1502 1503 1504 1506 1508 1510 1512 1514 1516 1519 1521
1559 1556 1552 1548 1544 1540 1536 1532 1528 1524 1521 1518 1514 1511 1508 1506 1503 1502 1501 1500 1498 1497 1496 1496 1496 1496 1496 1496 1496 1496 1497 1497 1497 1498 1499 1500 1502 1504 1507 1509 1511 1514 1517
1563 1558 1553 1548 1544 1540 1535 1531 1527 1524 1520 1516 1512 1509 1506 1503 1500 1498 1496 1494 1493 1492 1491 1490 1490 1490 1490 1490 1490 1491 1491 1492 1492 1493 1493 1494 1496 1499 1501 1503 1506 1509 1511
1563 1558 1553 1548 1543 1538 1533 1529 1525 1521 1517 1513 1510 1506 1502 1499 1496 1493 1491 1489 1487 1486 1485 1484 1484 1484 1484 1484 1484 1485 1485 1486 1486 1487 1488 1489 1490 1492 1495 1497 1500 1503 1506
1563 1557 1552 1546 1540 1535 1531 1526 1521 1517 1513 1509 1505 1502 1498 1494 1491 1488 1485 1483 1481 1479 1478 1478 1477 1477 1477 1478 1478 1479 1479 1479 1480 1481 1481 1483 1484 1486 1489 1492 1494 1497 1500
1562 1556 1550 1544 1538 1532 1527 1521 1517 1512 1508 1504 1500 1497 1493 1489 1486 1482 1479 1476 1474 1472 1470 1470 1469 1469 1469 1471 1471 1471 1472 1473 1473 1474 1475 1476 1478 1480 1482 1485 1488 1491 1494
1561 1555 1548 1542 1536 1529 1523 1517 1511 1506 1502 1498 1494 1491 1488 1484 1480 1476 1472 1469 1467 1465 1463 1462 1461 1461 1461 1464 1464 1464 1464 1465 1466 1467 1468 1469 1471 1473 1475 1478 1481 1484 1487
1560 1553 1547 1540 1534 1528 1522 1517 1511 1505 1500 1495 1490 1486 1482 1478 1474 1470 1466 1462 1460 1457 1455 1455 1454 1453 1453 1456 1457 1458 1457 1457 1457 1459 1460 1462 1463 1466 1468 1471 1474 1477 1480
1559 1553 1546 1540 1534 1527 1521 1514 1507 1501 1495 1489 1484 1479 1476 1472 1468 1464 1460 1456 1453 1450 1447 1446 1446 1445 1445 1447 1449 1451 1450 1449 1450 1451 1452 1454 1456 1458 1460 1463 1466 1469 1472
1558 1552 1546 1539 1533 1526 1519 1512 1505 1498 1491 1486 1481 1476 1471 1467 1462 1458 1453 1449 1445 1442 1440 1438 1437 1437 1436 1437 1440 1442 1444 1444 1445 1445 1446 1447 1449 1451 1453 1455 1458 1461 1464
1557 1550 1544 1537 1531 1524 1517 1510 1503 1497 1491 1484 1479 1472 1467 1461 1457 1452 1446 1441 1437 1434 1431 1429 1428 1428 1428 1428 1430 1433 1435 1436 1437 1439 1440 1441 1443 1444 1446 1448 1450 1453 1457
1555 1548 1541 1534 1527 1521 1514 1508 1501 1495 1488 1481 1475 1469 1463 1457 1452 1446 1440 1434 1429 1425 1422 1420 1419 1418 1418 1419 1421 1423 1425 1427 1428 1431 1433 1435 1437 1439 1440 1442 1444 1446 1449